Current Version              Previous Version:    01  02  03  04  05  06  07  08  09  10  11  12  13  14  15  16  17  18  19  20  21  22  23  24  25  26  27  28  29  30  
   31  32  33  34  35  36  37  38  39  40  41  42  43  44  45  46  47  48  49  50  51  52  53  54  55  56  57  58  59  60  

[Printable]
706
ASUS44 KFWD 231615
RWRTX
NORTH TEXAS HOURLY WEATHER ROUNDUP
NATIONAL WEATHER SERVICE FORT WORTH TX
1100 AM CDT TUE SEP 23 2014

NOTE: "FAIR" INDICATES FEW OR NO CLOUDS BELOW 12,000 FEET WITH NO
SIGNIFICANT WEATHER AND/OR OBSTRUCTIONS TO VISIBILITY.

TXZ118-119-231700-
DALLAS/FORT WORTH METROPLEX

CITY           SKY/WX    TMP DP  RH WIND       PRES   REMARKS
DFW AIRPORT    PTSUNNY   73  51  46 SE12      30.21R
DALLAS LOVE    PTSUNNY   73  52  47 SE12      30.21S
FTW MEACHAM    MOSUNNY   76  53  44 SE9       30.20S
DAL-EXECUTIVE  MOSUNNY   74  52  46 SE13      30.21R
FTW-ALLIANCE   PTSUNNY   73  52  47 S6        30.20S
FTW-NAS-JRB    MOSUNNY   78  51  38 SE10      30.24F
FTW-SPINKS     SUNNY     75  52  43 SE5       30.22S
ARLINGTON      MOSUNNY   74  51  44 E9        30.20S
GRAND PRAIRIE  SUNNY     73  52  46 MISG      30.22R
ADDISON        MOSUNNY   73  50  43 SE10      30.21S
MESQUITE       SUNNY     75  50  41 SE8       30.21S
LANCASTER      MOSUNNY   72  51  48 SE7       30.22S
$$

TXZ091>094-102>105-117-120-121-131>134-231700-
NORTH CENTRAL TEXAS

CITY           SKY/WX    TMP DP  RH WIND       PRES   REMARKS
SHRMAN/DENISON MOSUNNY   71  54  53 E8        30.24S
GAINESVILLE    MOSUNNY   70  53  55 SE8       30.25R
BOWIE          MOSUNNY   73  54  49 SE13      30.22S
BRIDGEPORT     MOSUNNY   73  51  47 S6        30.23S
DECATUR        MOSUNNY   72  51  48 SE9       30.22S
DENTON         MOSUNNY   74  52  46 SE9G18    30.21S
MCKINNEY       SUNNY     73  53  49 MISG      30.22S
GREENVILLE     SUNNY     73  52  46 E7        30.22S
ROCKWALL       SUNNY     74  54  48 SE6       30.20S
TERRELL        MOSUNNY   76  51  41 E9        30.21S
WAXAHACHIE     MOSUNNY   74  50  43 CALM      30.22S
CLEBURNE       SUNNY     75  54  46 SE10      30.22S
GRANBURY       SUNNY     76  51  41 SE7       30.21F
$$

TXZ083>090-098>101-113>116-127>130-139>142-154-155-231700-
WESTERN NORTH TEXAS

CITY           SKY/WX    TMP DP  RH WIND       PRES   REMARKS
WICHITA FALLS  MOSUNNY   73  55  53 S12       30.20S
WF-KICKAPOO    SUNNY     74  51  44 SE12G17   30.22S
VERNON         SUNNY     75  52  44 SE13G18   30.20S
ABILENE        PTSUNNY   77  55  46 S15       30.20S
ABILENE-DYESS  PTSUNNY   78  52  40 S14       30.19S
BRECKENRIDGE   MOSUNNY   77  53  42 SE13      30.20S HAZE
GRAHAM         MOSUNNY   77  51  39 SE10      30.18F
MINERAL WELLS  SUNNY     75  52  44 S10       30.19F
STEPHENVILLE   SUNNY     73  52  46 SE10      30.24R
COMANCHE       SUNNY     78  53  40 S9        30.21S
BROWNWOOD      MOSUNNY   75  55  50 SE9       30.20S
COLEMAN        MOSUNNY   75  55  50 S7        30.20F
BRADY          SUNNY     73  57  56 SE8       30.20S
$$

TXZ143>147-156>162-174-175-231700-
CENTRAL TEXAS

CITY           SKY/WX    TMP DP  RH WIND       PRES   REMARKS
WACO           SUNNY     75  53  46 E9        30.19S
WACO-TSTC      SUNNY     75  55  50 S6        30.19F
WACO-MCGREGOR  SUNNY     77  52  41 SE7       30.20F
HILLSBORO      SUNNY     75  52  43 SE10      30.20S
CORSICANA      MOSUNNY   75  53  46 SE10      30.21S
MEXIA          SUNNY     74  55  50 SE8       30.19S
HEARNE         SUNNY     76  56  50 E8        30.18S
CAMERON        SUNNY     77  56  49 SE8       30.18S
TEMPLE         SUNNY     75  52  43 E9        30.19S
KILLEEN        MOSUNNY   75  52  43 SE6       30.19S
KILLEEN-SKYLRK SUNNY     75  54  46 SE8       30.20S
FORT HOOD      SUNNY     79  54  41 E7        30.19S
GATESVILLE     SUNNY     73  54  49 SE6       30.22S
HAMILTON       SUNNY     75  52  44 S9        30.22S
LAMPASAS       SUNNY     76  57  53 SE8       30.19F
$$

TXZ095>097-106>112-122>126-135>138-148>153-164>167-231700-
EAST TEXAS

CITY           SKY/WX    TMP DP  RH WIND       PRES   REMARKS
PARIS          SUNNY     70  52  52 E9        30.24S
SULPHUR SPRNGS SUNNY     73  55  53 E9        30.24S
MOUNT PLEASANT SUNNY     73  53  51 SE9       30.23F
GILMER         SUNNY     73  55  53 E6        30.23S
MINEOLA        SUNNY     73  54  49 SE6       30.22S
TYLER          SUNNY     74  55  51 VRB7      30.20S
LONGVIEW       SUNNY     73  53  49 SE5       30.20S
MARSHALL       MOSUNNY   74  54  50 E8        30.23F
ATHENS         MOSUNNY   73  52  46 SE8       30.19S
PALESTINE      MOSUNNY   74  56  55 E8        30.21R
JACKSONVILLE   MOSUNNY   73  54  51 SE6       30.22S
HENDERSON      SUNNY     73  55  51 E5        30.21F
NACOGDOCHES    SUNNY     73  54  49 E3        30.19S
LUFKIN         MOSUNNY   77  57  50 E7        30.18R
$$

SUPPLEMENTAL OBSERVATIONS (CENTRAL)

CITY           SKY/WX    TMP DP  RH WIND       PRES   REMARKS
LAKE TEXOMA      N/A     70  54  56 E6          N/A
CADDO GRASSLND   N/A     72  55  56 SE6         N/A
PAT MAYSE LAKE   N/A     68  52  56 E6          N/A
GREENVILLE       N/A     73  52  46 E7          N/A
CEDAR HILL       N/A     79  52  38 SE6G14      N/A
PALESTINE        N/A     75  55  50 SE3         N/A
LAKE LIMESTONE   N/A     77  54  44 E7          N/A
MCGREGOR         N/A     77  52  41 SE7         N/A
TEMPLE           N/A     75  54  46 E7          N/A
$$

SUPPLEMENTAL OBSERVATIONS (WEST)

CITY           SKY/WX    TMP DP  RH WIND       PRES   REMARKS
MILLERS CREEK    N/A     75  55  50 SE12        N/A
POSSUM KINGDOM   N/A     79  52  38 S9          N/A
LBJ GRASSLAND    N/A     73  52  46 SE8G16      N/A
GRANBURY         N/A     75  50  41 SE8         N/A
COMANCHE         N/A     79  59  50 SE9G17      N/A
HAMBY            N/A     75  54  46 S12         N/A
IVIE RESERVOIR   N/A     73  57  56 SE7         N/A
COLORADO BEND    N/A     77  54  44 SE6         N/A
$$

SUPPLEMENTAL OBSERVATIONS (EAST)

CITY           SKY/WX    TMP DP  RH WIND       PRES   REMARKS
CADDO LAKE       N/A     77  54  44 NE3         N/A
HENDERSON        N/A     73  52  46 E6          N/A
LUFKIN           N/A     75  54  46 MISG        N/A
N SABINE NF      N/A     79  59  50 MISG        N/A
$$

SUPPLEMENTAL OBSERVATIONS ARE A COLLECTION OF AUTOMATED INSTRUMENTS
THAT ARE MAINTAINED BY A VARIETY OF FEDERAL AND STATE AGENCIES.
CERTAIN ELEMENTS...SUCH AS HUMIDITY VALUES AND SUSTAINED WIND
SPEEDS...MAY BE APPROXIMATED.